DateTimeUTC,F1_A11,F1_S11,BsB_S11,BsG_S11,BsR_S11,BbsB_S11,BbsG_S11,BbsR_S11,BaB_A11,BaG_A11,BaR_A11,Tu_S11,T_S11,Uu_S11,U_S11,P_S11,T1_A11
2021-09-21T19:00:00Z,00000200,21000000,,,,,,,-000.59,-000.07,-000.06,18.2,25.3,,00.0,0653.2,31.0
2021-09-21T19:01:00Z,00000200,21000000,,,,,,,-000.09,-000.10,-000.31,18.2,25.3,,00.0,0653.2,31.0
2021-09-21T19:02:00Z,00000200,21000000,,,,,,,-000.02,-000.11,-000.07,18.2,25.3,,00.0,0653.2,31.0
2021-09-21T19:03:00Z,00000200,61000000,,,,,,,0000.61,0000.05,0000.47,18.2,25.3,,00.0,0653.2,31.0
2021-09-21T19:04:00Z,00000200,41000000,0001.91,0001.27,0000.54,0000.25,0000.20,-000.11,0000.16,0000.69,0000.58,18.2,25.0,,00.0,0654.0,31.0
2021-09-21T19:05:00Z,00000200,01000000,0001.71,0001.45,0000.67,0000.40,0000.34,0000.31,0000.75,0000.11,0000.32,18.3,24.9,00.0,00.0,0654.1,31.0
2021-09-21T19:06:00Z,00000200,01000000,0001.82,0001.50,0000.91,0000.40,0000.21,0000.13,0000.20,0000.80,0000.19,18.4,24.9,,00.0,0654.1,31.0
2021-09-21T19:07:00Z,00000200,01000000,0001.65,0001.42,0000.42,0000.45,0000.03,0000.32,0000.44,0000.66,0000.08,18.4,25.0,,00.0,0654.1,31.0
2021-09-21T19:08:00Z,00000200,01000000,0002.16,0001.45,0000.76,0000.23,0000.30,0000.24,0000.09,0000.01,0000.18,18.5,25.0,,00.0,0654.1,31.0
2021-09-21T19:09:00Z,00000200,01000000,0001.90,0001.73,0001.05,0000.44,0000.36,0000.19,0004.20,0003.69,0003.07,18.6,25.0,,00.0,0654.1,31.0
2021-09-21T19:10:00Z,00000200,01000000,0003.33,0002.83,0001.31,0001.22,0000.33,0000.13,0025.90,0024.17,0019.36,18.7,25.1,,00.0,0654.1,31.0
2021-09-21T19:11:00Z,00000200,01000000,0001.45,0001.36,0001.41,0000.37,0000.13,0000.25,0007.91,0007.11,0005.96,18.7,25.1,,00.0,0654.1,31.0
2021-09-21T19:12:00Z,00000200,01000000,0002.13,0001.36,0000.86,0000.14,0000.08,0000.50,-000.02,0000.07,0000.20,18.8,25.1,,00.0,0654.1,31.0
2021-09-21T19:13:00Z,00000200,01000000,0001.27,0001.52,0000.57,0001.08,0000.43,0000.00,0000.72,0000.58,0000.08,18.7,25.1,,00.0,0654.1,31.0
2021-09-21T19:14:00Z,00000200,01000000,0002.28,0001.61,0001.01,0000.46,0000.37,0000.39,-000.11,-000.21,0000.19,18.6,25.1,,00.0,0654.1,31.0
2021-09-21T19:15:00Z,00000200,01000000,0001.93,0001.52,0000.75,0000.67,0000.17,0000.31,0000.40,0000.12,0000.19,18.6,25.0,,00.0,0654.2,31.0
2021-09-21T19:16:00Z,00000200,01000000,0001.58,0001.52,0001.03,-000.02,0000.15,0000.10,0000.33,0000.52,-000.01,18.5,25.0,,00.0,0654.1,31.0
2021-09-21T19:17:00Z,00000200,01000000,0001.59,0001.88,0000.90,0000.58,-000.01,0000.41,0000.34,0000.08,0000.44,18.4,25.0,,00.0,0654.1,31.0
2021-09-21T19:18:00Z,00000200,01000000,0001.74,0001.57,0000.87,-000.20,-000.23,0000.28,0000.33,0000.65,0000.27,18.4,25.0,,00.0,0654.1,31.0
2021-09-21T19:19:00Z,00000200,01000000,0002.18,0001.83,0001.15,0000.29,0000.23,0000.30,0003.65,0003.21,0002.36,18.3,24.9,,00.0,0654.1,31.0
2021-09-21T19:20:00Z,00000200,01000000,0001.88,0001.66,0001.08,0000.27,0000.05,0000.20,0002.14,0002.02,0001.79,18.4,24.9,,00.0,0654.1,31.0
2021-09-21T19:21:00Z,00000200,01000000,0001.55,0001.53,0000.83,0000.39,0000.24,0000.42,0000.67,0000.75,0000.44,18.4,24.9,,00.0,0654.1,31.0
2021-09-21T19:22:00Z,00000200,01000000,0001.85,0001.69,0000.99,0000.64,0000.24,0000.40,0000.15,0000.16,0000.48,18.5,24.9,,00.0,0654.1,31.0
2021-09-21T19:23:00Z,00000200,01000000,0001.27,0000.95,0000.68,0000.23,0000.25,0000.10,0000.45,0000.65,-000.10,18.6,25.0,,00.0,0654.1,31.0
2021-09-21T19:24:00Z,00000200,01000000,0002.18,0001.74,0000.65,0000.06,-000.13,0000.15,0000.56,0000.28,0000.68,18.7,25.1,,00.0,0654.2,31.0
2021-09-21T19:25:00Z,00000200,01000000,0001.70,0001.20,0000.83,0000.57,0000.28,0000.32,0000.23,0000.22,0000.30,18.7,25.1,,00.0,0654.2,31.0
2021-09-21T19:26:00Z,00000200,01000000,0001.38,0001.29,0001.27,-000.07,0000.08,0000.33,0000.65,0000.72,0000.25,18.8,25.1,,00.0,0654.1,31.1
2021-09-21T19:27:00Z,00000200,01000000,0002.49,0001.36,0001.17,0000.04,-000.06,0000.37,0000.27,0000.02,0000.10,18.9,25.2,,00.0,0654.1,31.0
2021-09-21T19:28:00Z,00000200,01000000,0001.69,0001.26,0000.90,0000.46,0000.37,0000.32,0000.06,0000.07,0000.26,18.8,25.1,,00.0,0654.2,31.0
2021-09-21T19:29:00Z,00000200,01000000,0001.78,0001.43,0000.70,0000.50,0000.31,0000.15,-000.21,0000.10,0000.15,18.8,25.1,,00.0,0654.1,31.0
2021-09-21T19:30:00Z,00000200,01000000,0001.73,0001.29,0001.02,0000.55,0000.32,0000.17,0000.61,0000.42,0000.23,18.7,25.1,,00.0,0654.2,31.0
2021-09-21T19:31:00Z,00000200,01000000,0002.22,0001.25,0000.48,0000.96,0000.11,0000.02,0000.27,0000.36,0000.09,18.6,25.1,,00.0,0654.1,31.0
2021-09-21T19:32:00Z,00000200,01000000,0002.40,0001.50,0000.98,0000.45,0000.19,0000.42,0000.17,0000.03,0000.06,18.6,25.1,,00.0,0654.1,31.0
2021-09-21T19:33:00Z,00000200,01000000,0001.40,0001.80,0000.69,-000.34,0000.30,0000.35,0000.23,0000.24,0000.25,18.5,25.0,,00.0,0654.1,31.0
2021-09-21T19:34:00Z,00000200,01000000,0001.95,0001.68,0000.32,-000.03,0000.36,0000.24,0000.80,0000.53,0000.44,18.5,25.0,,00.0,0654.1,31.0
2021-09-21T19:35:00Z,00000200,01000000,0000.87,0001.32,0000.69,0000.04,-000.19,0000.10,0000.02,0000.12,0000.17,18.5,25.0,,00.0,0654.1,31.0
2021-09-21T19:36:00Z,00000200,01000000,0001.89,0001.47,0000.59,0000.14,0000.00,0000.24,0000.32,0000.61,0000.38,18.6,25.0,,00.0,0654.2,31.0
2021-09-21T19:37:00Z,00000200,01000000,0001.86,0001.61,0001.07,0000.15,0000.05,0000.49,0000.49,0000.21,0000.38,18.6,25.0,,00.0,0654.2,31.0
2021-09-21T19:38:00Z,00000200,01000000,0001.73,0001.59,0000.68,-000.07,0000.06,0000.19,0000.37,0000.56,0000.37,18.7,25.1,,00.0,0654.2,31.0
2021-09-21T19:39:00Z,00000200,01000000,0001.40,0001.39,0000.40,0000.18,0000.12,0000.26,0000.46,0000.37,0000.05,18.8,25.1,,00.0,0654.2,31.0
2021-09-21T19:40:00Z,00000200,01000000,0001.76,0001.40,0000.46,0000.58,0000.21,-000.13,0000.28,0000.20,0000.74,18.8,25.2,,00.0,0654.2,31.0
2021-09-21T19:41:00Z,00000200,01000000,0002.03,0001.21,0000.62,0000.10,0000.37,-000.02,0000.29,0000.37,0000.07,18.9,25.2,,00.0,0654.2,31.1
2021-09-21T19:42:00Z,00000200,01000000,0001.71,0001.49,0000.78,0000.42,0000.37,0000.21,0000.13,0000.13,-000.02,18.9,25.2,,00.0,0654.2,31.1
2021-09-21T19:43:00Z,00000200,01000000,0002.45,0001.13,0000.95,0000.55,0000.30,0000.11,0000.47,0000.37,0000.01,18.9,25.2,,00.0,0654.2,31.0
2021-09-21T19:44:00Z,00000200,01000000,0001.69,0001.80,0000.64,0000.18,-000.03,0000.09,-000.00,-000.31,0000.20,18.9,25.2,,00.0,0654.2,31.0
2021-09-21T19:45:00Z,00000200,01000000,0001.41,0001.29,0000.95,-000.49,0000.32,0000.21,-000.10,0000.38,-000.05,18.8,25.2,,00.0,0654.2,31.0
2021-09-21T19:46:00Z,00000200,01000000,0002.24,0001.44,0000.90,0000.40,0000.18,-000.00,0000.33,0000.33,0000.46,18.7,25.2,,00.0,0654.2,31.0
2021-09-21T19:47:00Z,00000200,01000000,0002.23,0001.51,0000.64,-000.28,0000.37,-000.03,0000.57,-000.28,-000.27,18.6,25.1,,00.0,0654.2,31.0
2021-09-21T19:48:00Z,00000200,01000000,0002.12,0001.49,0000.89,0000.19,-000.06,0000.29,0000.03,0000.76,0000.69,18.6,25.1,,00.0,0654.2,31.0
2021-09-21T19:49:00Z,00000200,01000000,0001.66,0001.16,0000.43,0000.52,0000.06,0000.06,0000.58,0000.47,0000.18,18.6,25.1,,00.0,0654.2,31.0
2021-09-21T19:50:00Z,00000200,01000000,0001.83,0001.54,0000.83,0000.47,0000.09,0000.11,0000.47,0000.27,0000.30,18.6,25.0,,00.0,0654.2,31.0
2021-09-21T19:51:00Z,00000200,01000000,0002.23,0001.53,0000.72,0000.82,0000.08,-000.03,0000.39,0000.30,0000.24,18.6,25.1,,00.0,0654.2,31.0
2021-09-21T19:52:00Z,00000200,01000000,0001.51,0001.52,0000.89,0000.68,-000.01,0000.13,0000.58,0000.71,0000.61,18.7,25.1,,00.0,0654.2,31.0
2021-09-21T19:53:00Z,00000200,01000000,0001.79,0001.40,0000.74,-000.41,0000.16,0000.56,0000.09,-000.05,-000.02,18.7,25.1,,00.0,0654.3,31.0
2021-09-21T19:54:00Z,00000200,01000000,0001.37,0001.73,0001.04,0000.10,0000.41,0000.34,0000.39,0000.32,0000.10,18.8,25.2,,00.0,0654.3,31.0
2021-09-21T19:55:00Z,00000200,01000000,0001.05,0001.52,0000.93,0000.48,0000.30,0000.35,0000.03,0000.29,0000.42,18.9,25.2,,00.0,0654.3,31.0
2021-09-21T19:56:00Z,00000200,01000000,0001.66,0001.40,0000.66,0000.50,0000.26,0000.22,0000.62,0000.47,0000.17,18.9,25.3,,00.0,0654.3,31.1
2021-09-21T19:57:00Z,00000200,41000000,,,,,,,0001.39,0001.24,0001.05,19.0,25.3,,00.0,0654.3,31.1
2021-09-21T19:58:00Z,00000200,61000000,,,,,,,-001.17,-001.31,-000.80,18.6,25.4,,00.0,0653.3,31.1
2021-09-21T19:59:00Z,00000200,21000000,,,,,,,-000.47,-000.03,-000.33,18.6,25.5,,00.0,0653.3,31.0
